Location: Katowice
(50.2611°N, 19.0242°E)
Time: 00:14:30
(UTC+02:00)

Explorer 7 - Pass Details

Date: 28 August 2019
Orbit: 485 x 680 km, 50.3° (Epoch: 19 September)

Event Time Altitude Azimuth Distance (km) Brightness Sun altitude
Rises 11:58:13 0° 279° (W) 2,988 10.4 48.3°
Reaches altitude 10° 12:00:37 10° 279° (W) 2,052 9.7 48.4°
Maximum altitude 12:05:21 81° 192° (SSW) 636 8.3 48.6°
Drops below altitude 10° 12:09:48 10° 106° (ESE) 1,932 10.0 48.8°
Sets 12:12:00 0° 105° (ESE) 2,798 10.7 48.9°
